[[{"header":{"parameterUnit":"m.s-1","parameterCategory":1,"la1":30.2991,"la2":30.254,"lo1":-89.0895,"lo2":-89.0444,"dy":0.0017,"dx":0.0017,"nx":28,"ny":28,"refTime":"2025-01-22T03:00:00:Z","depth":0,"parameterNumber":2,"parameterNumberName":"U-component_of_WINDS"},"data":[0,0,0,0,0,0,0,0,0,0,0,0,0,0,0,0,0,0,0,0,0,0,0,0,0,0,0,0,0,0,0,0,0,0,0,0,0,0,0,0,0,0,0,0,0,0,0,0,0,0,0,0,0,0,0,0,0,0,-0.0554,-0.0555,0,-0.0721,-0.0723,-0.0725,-0.0838,-0.0839,-0.084,-0.0841,-0.1011,-0.1014,-0.1018,0,0,0,0,0,0,0,0,0,0,0,0,0,-0.0329,-0.0333,-0.0553,-0.0555,-0.0558,-0.0721,-0.0723,-0.0726,-0.0838,-0.0839,-0.084,-0.0841,-0.101,-0.1014,-0.1019,0,0,0,0,0,0,0,0,0,0,0,0,0,-0.0454,-0.0334,-0.0553,-0.0633,-0.0642,-0.0721,-0.0723,-0.0726,-0.0838,-0.0839,-0.084,-0.0841,-0.1008,-0.1014,-0.1019,-0.103,0,0,-0.1037,-0.1039,0,0,0,0,0,0,0,0,-0.0447,-0.0463,-0.062,-0.0628,-0.0638,-0.076,-0.0707,-0.0828,-0.0838,-0.0764,-0.0841,-0.0842,-0.0926,-0.0939,-0.0968,-0.1038,-0.1046,-0.1037,-0.104,-0.1043,-0.1045,0,0,0,0,0,0,0,-0.0438,-0.0456,-0.062,-0.0622,-0.0633,-0.0661,-0.068,-0.073,-0.0836,-0.077,-0.0779,-0.0797,-0.0932,-0.0962,-0.0972,-0.1048,-0.1037,-0.1042,-0.1045,-0.1048,-0.1136,-0.1135,0,0,0,0,0,0,-0.0417,-0.0448,-0.0615,-0.0625,-0.0544,-0.0664,-0.0685,-0.072,-0.0836,-0.0855,-0.0796,-0.0802,-0.0952,-0.0966,-0.0979,-0.0999,-0.1043,-0.1048,-0.1051,-0.1137,-0.1136,-0.1134,0,0,0,0,0,0,-0.0412,-0.0431,-0.0608,-0.0539,-0.0564,-0.0666,-0.0704,-0.0722,-0.0753,-0.0856,-0.0875,-0.0807,-0.0953,-0.0971,-0.1017,-0.1007,-0.1051,-0.1056,-0.1138,-0.1136,-0.1135,-0.1039,0,0,0,0,0,0,-0.0405,-0.0428,-0.0434,-0.0538,-0.0567,-0.0643,-0.0704,-0.0725,-0.0763,-0.0772,-0.0871,-0.0889,-0.0955,-0.1008,-0.1022,-0.1015,-0.106,-0.1139,-0.1137,-0.1136,-0.1044,-0.1035,-0.1027,0,0,0,0,0,-0.0397,-0.04,-0.0434,-0.0453,-0.0576,-0.0642,-0.0658,-0.0735,-0.0761,-0.0767,-0.0833,-0.0886,-0.1005,-0.1011,-0.1029,-0.1023,-0.114,-0.1138,-0.1136,-0.1048,-0.1036,-0.1027,0,0,0,0,0,0,-0.0291,-0.0415,-0.0454,-0.0491,-0.0555,-0.0661,-0.0671,-0.0721,-0.0779,-0.0785,-0.0877,-0.0899,-0.0935,-0.0984,-0.0988,-0.104,-0.1079,-0.108,-0.1006,-0.0997,-0.0988,-0.0975,-0.1065,0,0,0,0,0,-0.0273,-0.0316,-0.0422,-0.0445,-0.0475,-0.0567,-0.0599,-0.0653,-0.0723,-0.075,-0.082,-0.0885,-0.0938,-0.097,-0.1024,-0.1052,-0.1075,-0.1057,-0.1048,-0.1041,-0.104,-0.1058,-0.1051,-0.1127,-0.1127,-0.1127,0,0,-0.0234,-0.0307,-0.0329,-0.0426,-0.0482,-0.0524,-0.0589,-0.0632,-0.0664,-0.0757,-0.0804,-0.0857,-0.0936,-0.0973,-0.0993,-0.1015,-0.1024,-0.1038,-0.1031,-0.1034,-0.1055,-0.1047,-0.1041,-0.1125,-0.1125,-0.1126,0,0,-0.0186,-0.0245,-0.0271,-0.0326,-0.041,-0.0471,-0.0477,-0.0576,-0.0614,-0.0664,-0.0734,-0.0773,-0.0862,-0.0915,-0.0954,-0.0926,-0.0976,-0.0941,-0.0896,-0.0912,-0.0906,-0.0901,-0.089,-0.0885,-0.094,-0.094,-0.094,0,-0.0127,-0.0194,-0.0277,-0.0316,-0.0356,-0.0442,-0.0468,-0.0517,-0.0614,-0.0639,-0.0663,-0.0776,-0.0836,-0.0886,-0.0879,-0.0908,-0.0917,-0.0929,-0.09,-0.0896,-0.0893,-0.0883,-0.0879,-0.0935,-0.0935,-0.0936,-0.0936,0,-0.0118,-0.0163,-0.0174,-0.0265,-0.0307,-0.0339,-0.0426,-0.0458,-0.0508,-0.0566,-0.0615,-0.069,-0.076,-0.0776,-0.0825,-0.0833,-0.0844,-0.0883,-0.0924,-0.0879,-0.0872,-0.0869,-0.0928,-0.093,-0.0931,-0.0932,0,0,-0.0007,-0.0144,-0.0147,-0.0189,-0.0288,-0.0325,-0.0361,-0.043,-0.0455,-0.0519,-0.0551,-0.0624,-0.0661,-0.0704,-0.076,-0.0775,-0.0746,-0.0812,-0.0815,-0.0796,-0.0759,-0.0728,-0.0722,-0.0781,-0.078,-0.078,-0.0752,0,0.0027,-0.0041,-0.0117,-0.0159,-0.0202,-0.0284,-0.0316,-0.0379,-0.0435,-0.0479,-0.0541,-0.0591,-0.0636,-0.0663,-0.0681,-0.0746,-0.074,-0.0749,-0.081,-0.0811,-0.0787,-0.0719,-0.0687,-0.0656,-0.0749,-0.0749,-0.0749,0,0.0058,-0.0002,-0.0048,-0.0143,-0.0164,-0.019,-0.026,-0.0301,-0.0375,-0.0415,-0.0464,-0.0524,-0.0565,-0.0602,-0.0659,-0.0664,-0.0693,-0.0729,-0.073,-0.0738,-0.0776,-0.0724,-0.0649,-0.0643,-0.0745,-0.0745,-0.0746,0,0.0145,0.0052,0.0013,-0.0021,-0.0133,-0.015,-0.0197,-0.0273,-0.0309,-0.037,-0.0395,-0.0459,-0.0494,-0.0542,-0.0617,-0.0637,-0.0666,-0.071,-0.07,-0.0697,-0.0701,-0.07,-0.0628,-0.0721,-0.0721,-0.0722,-0.0722,0,0.0192,0.0167,0.005,0.0026,-0.0004,-0.0091,-0.0118,-0.0173,-0.0239,-0.0275,-0.0351,-0.0382,-0.0481,-0.0524,-0.0584,-0.0622,-0.0637,-0.067,-0.0685,-0.0662,-0.0658,-0.0682,-0.0686,-0.072,-0.0721,-0.0721,-0.0721,0,0.0285,0.0205,0.0157,0.0054,0.0028,0.0011,-0.0077,-0.0103,-0.0164,-0.0208,-0.0224,-0.0318,-0.0373,-0.0453,-0.0533,-0.0573,-0.0601,-0.0627,-0.0576,-0.0585,-0.057,-0.057,-0.0511,-0.0507,-0.0603,-0.0602,-0.0601,0,0.032,0.0299,0.0195,0.0165,0.012,0.0073,0.0035,-0.0051,-0.0087,-0.0173,-0.0189,-0.025,-0.0303,-0.0387,-0.0462,-0.0523,-0.055,-0.0526,-0.056,-0.0536,-0.0549,-0.0546,-0.0548,-0.0517,-0.0515,-0.0514,-0.0513,0,0.0392,0.0354,0.0302,0.0237,0.0194,0.0138,0.0079,0.0059,-0.004,-0.0077,-0.0134,-0.0175,-0.0257,-0.0316,-0.0387,-0.0436,-0.049,-0.0502,-0.0503,-0.0479,-0.0448,-0.0464,-0.0553,-0.0502,-0.0504,-0.0504,-0.0505,-0.0505,0.0458,0.0435,0.0359,0.0303,0.025,0.0196,0.0167,0.0103,0.0053,-0.002,-0.0068,-0.0122,-0.0196,-0.0298,-0.0343,-0.0387,-0.041,-0.0411,-0.0411,-0.041,-0.0401,-0.0442,-0.0401,-0.0401,-0.0401,-0.0402,-0.0402,0,0.0527,0.0473,0.0423,0.0343,0.03,0.0251,0.0183,0.0151,0.0103,0.0039,-0.0012,-0.0077,-0.0136,-0.0215,-0.0279,-0.0299,-0.0325,-0.0312,-0.0311,-0.0321,-0.0378,-0.037,-0.029,-0.029,-0.029,-0.029,-0.029,-0.029,0.0558,0.0518,0.047,0.0403,0.0349,0.0295,0.0261,0.0211,0.0159,0.0089,0.0041,-0.0011,-0.0082,-0.0151,-0.0206,-0.0228,-0.0248,-0.0227,-0.0256,-0.0307,-0.0317,-0.0327,-0.0321,-0.0231,-0.023,-0.0196,-0.0196,-0.0195]},{"header":{"parameterUnit":"m.s-1","parameterCategory":1,"la1":30.2991,"la2":30.254,"lo1":-89.0895,"lo2":-89.0444,"dy":0.0017,"dx":0.0017,"nx":28,"ny":28,"refTime":"2025-01-22T03:00:00:Z","depth":0,"parameterNumber":3,"parameterNumberName":"V-component_of_WINDS"},"data":[0,0,0,0,0,0,0,0,0,0,0,0,0,0,0,0,0,0,0,0,0,0,0,0,0,0,0,0,0,0,0,0,0,0,0,0,0,0,0,0,0,0,0,0,0,0,0,0,0,0,0,0,0,0,0,0,0,0,-1.1743,-1.1743,0,-1.1743,-1.1743,-1.1743,-1.1798,-1.1799,-1.1801,-1.1802,-1.1802,-1.1801,-1.1799,0,0,0,0,0,0,0,0,0,0,0,0,0,-1.1789,-1.1788,-1.1743,-1.1743,-1.1743,-1.1743,-1.1743,-1.1743,-1.1798,-1.1799,-1.1801,-1.1803,-1.1802,-1.1801,-1.1799,0,0,0,0,0,0,0,0,0,0,0,0,0,-1.1777,-1.1788,-1.1743,-1.177,-1.1773,-1.1743,-1.1743,-1.1743,-1.1797,-1.1799,-1.1802,-1.1804,-1.1803,-1.1801,-1.1799,-1.1744,0,0,-1.1793,-1.1792,0,0,0,0,0,0,0,0,-1.1778,-1.1775,-1.1766,-1.1768,-1.1771,-1.1773,-1.176,-1.1743,-1.1797,-1.1788,-1.1802,-1.1805,-1.179,-1.179,-1.1785,-1.1744,-1.1744,-1.1793,-1.1791,-1.1791,-1.179,0,0,0,0,0,0,0,-1.1778,-1.1776,-1.1743,-1.1766,-1.1769,-1.1782,-1.1783,-1.1757,-1.1777,-1.1789,-1.1793,-1.1792,-1.1792,-1.1787,-1.1785,-1.1744,-1.1793,-1.1791,-1.179,-1.1789,-1.1656,-1.1654,0,0,0,0,0,0,-1.1776,-1.1776,-1.1743,-1.1743,-1.178,-1.178,-1.178,-1.177,-1.1778,-1.1781,-1.179,-1.1795,-1.1789,-1.1788,-1.1786,-1.172,-1.1791,-1.1789,-1.1788,-1.1658,-1.1656,-1.1653,0,0,0,0,0,0,-1.1776,-1.1772,-1.1743,-1.1761,-1.1758,-1.1777,-1.1764,-1.1769,-1.1763,-1.1779,-1.1783,-1.1781,-1.1791,-1.1788,-1.1753,-1.1721,-1.1788,-1.1786,-1.1661,-1.1657,-1.1654,-1.1589,0,0,0,0,0,0,-1.1777,-1.1772,-1.1751,-1.176,-1.1757,-1.1711,-1.1762,-1.1767,-1.176,-1.1766,-1.1771,-1.1774,-1.1792,-1.1756,-1.1751,-1.1719,-1.1784,-1.1664,-1.1659,-1.1655,-1.1594,-1.1584,-1.1575,0,0,0,0,0,-1.1779,-1.1733,-1.175,-1.1745,-1.1731,-1.1709,-1.1707,-1.1729,-1.1757,-1.1736,-1.1746,-1.1774,-1.1726,-1.1752,-1.1747,-1.1714,-1.1666,-1.1661,-1.1656,-1.1598,-1.1586,-1.1575,0,0,0,0,0,0,-1.172,-1.1734,-1.1753,-1.1709,-1.1707,-1.1718,-1.1692,-1.1715,-1.1705,-1.1711,-1.1739,-1.174,-1.17,-1.1704,-1.1733,-1.166,-1.1701,-1.1694,-1.1659,-1.1647,-1.1637,-1.1636,-1.1783,0,0,0,0,0,-1.1702,-1.1682,-1.1696,-1.1656,-1.1654,-1.1673,-1.1664,-1.1681,-1.1681,-1.168,-1.1688,-1.1686,-1.167,-1.1659,-1.1646,-1.1596,-1.1597,-1.1571,-1.1561,-1.1553,-1.1546,-1.1519,-1.1507,-1.1636,-1.1636,-1.1636,0,0,-1.1663,-1.1669,-1.1655,-1.1644,-1.1644,-1.1623,-1.1672,-1.1648,-1.1632,-1.1677,-1.1643,-1.1649,-1.1649,-1.1606,-1.1587,-1.1607,-1.1511,-1.1546,-1.154,-1.1537,-1.1512,-1.15,-1.1489,-1.1632,-1.1633,-1.1633,0,0,-1.1583,-1.1586,-1.1552,-1.1552,-1.1552,-1.1565,-1.1557,-1.1565,-1.157,-1.1537,-1.157,-1.1552,-1.1525,-1.1523,-1.1519,-1.1438,-1.1463,-1.1434,-1.1382,-1.1355,-1.1345,-1.1336,-1.1305,-1.1294,-1.1427,-1.1427,-1.1427,0,-1.1535,-1.1505,-1.1531,-1.1504,-1.1498,-1.1538,-1.1503,-1.1502,-1.1498,-1.1492,-1.1516,-1.1482,-1.1485,-1.1442,-1.1422,-1.1418,-1.1408,-1.1432,-1.1344,-1.1336,-1.1328,-1.1299,-1.1288,-1.1423,-1.1424,-1.1424,-1.1425,0,-1.1446,-1.1424,-1.1397,-1.1391,-1.1382,-1.1352,-1.1373,-1.1361,-1.138,-1.139,-1.1356,-1.1361,-1.1349,-1.1341,-1.1359,-1.1299,-1.1312,-1.1339,-1.138,-1.1311,-1.1284,-1.1274,-1.1418,-1.1419,-1.1421,-1.1421,0,0,-1.1326,-1.1336,-1.1325,-1.1323,-1.1327,-1.1311,-1.1283,-1.1271,-1.1259,-1.1256,-1.1231,-1.1208,-1.1234,-1.1228,-1.1247,-1.1223,-1.1157,-1.1254,-1.1254,-1.1234,-1.1091,-1.1068,-1.1055,-1.1175,-1.1173,-1.1171,-1.109,0,-1.1246,-1.1197,-1.122,-1.1169,-1.1149,-1.1187,-1.1162,-1.1161,-1.1171,-1.1155,-1.1166,-1.1148,-1.1184,-1.1181,-1.116,-1.117,-1.1129,-1.1176,-1.1151,-1.115,-1.1148,-1.1041,-1.1018,-1.094,-1.108,-1.1078,-1.1077,0,-1.1146,-1.1138,-1.1084,-1.1091,-1.1084,-1.1061,-1.1052,-1.1037,-1.1037,-1.1046,-1.104,-1.1064,-1.1037,-1.1079,-1.104,-1.1072,-1.1064,-1.1067,-1.1065,-1.1062,-1.1108,-1.1033,-1.0916,-1.0904,-1.1061,-1.1062,-1.1064,0,-1.1061,-1.1037,-1.1002,-1.0999,-1.1008,-1.099,-1.0993,-1.0996,-1.0987,-1.098,-1.0974,-1.0963,-1.0957,-1.0948,-1.0968,-1.0998,-1.0926,-1.0971,-1.0932,-1.0931,-1.0913,-1.0913,-1.0791,-1.0911,-1.0911,-1.0912,-1.0912,0,-1.0968,-1.0933,-1.0964,-1.0942,-1.0904,-1.0931,-1.0893,-1.09,-1.0902,-1.0881,-1.0915,-1.0895,-1.0924,-1.0907,-1.0923,-1.0888,-1.0886,-1.0891,-1.0895,-1.0887,-1.0885,-1.088,-1.0885,-1.0909,-1.0909,-1.091,-1.091,0,-1.0866,-1.0885,-1.0849,-1.086,-1.0862,-1.0833,-1.0843,-1.0822,-1.0835,-1.0809,-1.0804,-1.0824,-1.0805,-1.0825,-1.0809,-1.082,-1.0772,-1.0785,-1.0771,-1.0774,-1.0733,-1.0736,-1.0601,-1.0584,-1.0717,-1.0715,-1.0714,0,-1.0804,-1.0778,-1.0787,-1.0776,-1.0776,-1.0758,-1.0749,-1.0776,-1.0766,-1.0764,-1.0744,-1.0729,-1.0718,-1.0687,-1.0699,-1.0686,-1.0698,-1.0652,-1.0696,-1.0688,-1.0695,-1.0695,-1.0692,-1.0642,-1.064,-1.0639,-1.0638,0,-1.0692,-1.0703,-1.069,-1.0679,-1.0668,-1.0661,-1.0657,-1.0646,-1.0673,-1.066,-1.0642,-1.0633,-1.0616,-1.06,-1.0591,-1.0594,-1.062,-1.0624,-1.0614,-1.0604,-1.0596,-1.0598,-1.0744,-1.0627,-1.0628,-1.0629,-1.0629,-1.063,-1.0607,-1.0585,-1.0588,-1.0571,-1.0571,-1.0566,-1.0548,-1.0558,-1.0543,-1.0531,-1.0549,-1.0525,-1.0527,-1.0517,-1.0517,-1.0499,-1.0519,-1.0505,-1.0501,-1.0496,-1.0489,-1.0601,-1.0498,-1.0498,-1.0499,-1.0499,-1.0499,0,-1.0495,-1.0498,-1.0483,-1.0476,-1.0463,-1.049,-1.0487,-1.0474,-1.0453,-1.0453,-1.0441,-1.042,-1.0405,-1.0416,-1.0403,-1.0387,-1.0398,-1.0382,-1.0383,-1.0382,-1.0473,-1.0482,-1.0373,-1.0373,-1.0373,-1.0373,-1.0373,-1.0373,-1.0435,-1.0399,-1.041,-1.0375,-1.0379,-1.0357,-1.0352,-1.0348,-1.0347,-1.0322,-1.0309,-1.0317,-1.0321,-1.0309,-1.0296,-1.03,-1.0293,-1.0272,-1.028,-1.0364,-1.0376,-1.0388,-1.0396,-1.0271,-1.0271,-1.019,-1.0189,-1.0189]}]]